2026-023B

Last updated on Sun Mar 08 2026 00:02:12 GMT+0000 (Coordinated Universal Time)

1 67675U 26023B 26066.61772536 .00016700 00000+0 70952-3 0 9990 2 67675 96.6355 139.8052 0019381 139.2192 221.0502 15.22936095 4541
UTC large
Height (km)
Speed (km/s)
/
Latitude / Longitude
Inclination (degrees)
Orbital Period (minutes)
Azimuth
Elevation
Range (km)
Doppler Factor

Next 0 passes for location: London (51.5072 / 0.1276)

Sorry there are no passes over London.